This is the latest recevied weather packets stored in our database for station/object OK6DJ-6. If no packets are shown the sender has not sent any weather packets the latest 1 day(s).
| Time | Temp. | Humidity | Pressure | Rain* | Wind** | Luminosity | Snow |
|---|---|---|---|---|---|---|---|
| 1788459362 | 16.67° C | 90% | 1020.3 hPa | 0 mm | 0 m/s | - | - |
| 1788458762 | 16.67° C | 90% | 1020.2 hPa | 0 mm | 0 m/s | - | - |
| 1788458162 | 16.67° C | 90% | 1020.2 hPa | 0 mm | 0 m/s | - | - |
| 1788457562 | 16.67° C | 91% | 1020.2 hPa | 0 mm | 0 m/s | - | - |
| 1788456962 | 16.67° C | 90% | 1020.1 hPa | 0 mm | 0 m/s | - | - |
| 1788456362 | 17.22° C | 90% | 1020.2 hPa | 0.51 mm | 0 m/s | - | - |
| 1788455762 | 17.22° C | 88% | 1020.5 hPa | 0.51 mm | 0 m/s | - | - |
| 1788455162 | 17.22° C | 89% | 1020.6 hPa | 0.51 mm | 0 m/s | - | - |
| 1788454562 | 17.22° C | 89% | 1020.8 hPa | 0.51 mm | 0 m/s | - | - |
| 1788453962 | 17.22° C | 89% | 1020.6 hPa | 1.02 mm | 0 m/s | - | - |
| 1788453362 | 17.78° C | 87% | 1020.8 hPa | 1.02 mm | 0 m/s | - | - |
| 1788452762 | 17.22° C | 85% | 1020.6 hPa | 0.51 mm | 0 m/s | - | - |
| 1788452162 | 17.78° C | 86% | 1020.7 hPa | 0.51 mm | 0 m/s | - | - |
| 1788451562 | 17.78° C | 84% | 1020.5 hPa | 0.51 mm | 0 m/s | - | - |
| 1788450962 | 18.33° C | 85% | 1020.4 hPa | 0.51 mm | 0 m/s | - | - |
| 1788450362 | 17.78° C | 82% | 1020.3 hPa | 0 mm | 0 m/s | - | - |
| 1788449762 | 18.33° C | 80% | 1020.4 hPa | 0 mm | 0 m/s | - | - |
| 1788449162 | 18.89° C | 75% | 1020.3 hPa | 0 mm | 0 m/s | - | - |
| 1788448562 | 19.44° C | 72% | 1020.3 hPa | 0 mm | 0 m/s | - | - |
| 1788447962 | 20.56° C | 61% | 1020.3 hPa | 0 mm | 0.45 m/s, 0° | - | - |
| 1788447362 | 21.67° C | 54% | 1020.3 hPa | 0 mm | 0.45 m/s, 0° | - | - |
* Rain latest hour (hover to see other rain measurements)
** Current wind speed in m/s (hover to see current wind gust speed)